Location: Winnipauk Village
(41.1295°N, 73.4171°W)
Time: 13:58:03
(UTC+00:00)

X-37B - Pass Details

Date: 08 August 2021
Orbit: 381 x 393 km, 45.0° (Epoch: 29 August)

Event Time Altitude Azimuth Distance (km) Brightness Sun altitude
Exits shadow 09:18:50 - 290° (WNW) 2,150 4.0 -7.2°
Reaches altitude 10° 09:20:42 10° 295° (WNW) 1,397 3.1 -6.9°
Maximum altitude 09:23:46 53° 14° (NNE) 475 1.3 -6.4°
Drops below altitude 10° 09:26:52 10° 93° (E) 1,396 4.5 -5.9°
Sets 09:28:57 0° 98° (E) 2,248 5.5 -5.5°
